GW3049 Weather Reports


time (UTC)temp
C
wind
direction
speed
KPH
gust
KPH
rain 1hr
cm
rain 24hr
cm
rain mn
cm
humidity
%
barometer
mb
20260506091705 16 0.0 0.0 0.00 0.00 0.00 77 1005.4
20260506091204 16 0.0 0.0 0.00 0.00 0.00 77 1005.5
20260506090705 16 0.0 0.0 0.00 0.00 0.00 77 1005.5
20260506090206 16 0.0 0.0 0.00 0.00 0.00 78 1005.7
20260506085205 16 0.0 0.0 0.00 0.00 0.00 77 1005.7
20260506084706 16 0.0 0.0 0.00 0.00 0.00 77 1005.7
20260506084204 16 0.0 0.0 0.00 0.00 0.00 80 1005.6
20260506083705 16 0.0 0.0 0.00 0.00 0.00 80 1005.6
20260506083205 15 0.0 0.0 0.00 0.00 0.00 83 1005.8
20260506082705 15 0.0 0.0 0.00 0.00 0.00 83 1005.8
20260506082206 14 0.0 0.0 0.00 0.00 0.00 88 1006.0
20260506081704 14 0.0 0.0 0.00 0.00 0.00 88 1006.0
20260506081206 14 0.0 0.0 0.00 0.00 0.00 89 1006.0
20260506080705 14 0.0 0.0 0.00 0.00 0.00 89 1006.0
20260506080204 13 0.0 0.0 0.00 0.00 0.00 93 1006.0
20260506073204 12 0.0 0.0 0.00 0.00 0.00 100 1006.0
20260506072705 12 0.0 0.0 0.00 0.00 0.00 100 1006.0
20260506071705 11 0.0 0.0 0.00 0.00 0.00 100 1006.0
20260506071205 11 0.0 0.0 0.00 0.00 0.00 100 1006.0
20260506070704 11 0.0 0.0 0.00 0.00 0.00 100 1006.0
20260506070207 11 0.0 0.0 0.00 0.00 0.00 100 1006.0
20260506062204 10 0.0 0.0 0.00 0.00 0.00 100 1006.3
20260506061705 10 0.0 0.0 0.00 0.00 0.00 100 1006.3
20260506061205 10 0.0 0.0 0.00 0.00 0.00 100 1006.3
20260506060705 10 0.0 0.0 0.00 0.00 0.00 100 1006.3
20260506060206 10 0.0 0.0 0.00 0.00 0.00 100 1006.3
20260506051205 8 0.0 0.0 0.00 0.00 0.00 100 1006.6
20260506050705 8 0.0 0.0 0.00 0.00 0.00 100 1006.6
20260506050206 8 0.0 0.0 0.00 0.00 0.00 100 1006.6
20260506044706 8 0.0 0.0 0.00 0.00 0.00 100 1006.5
20260506044204 8 0.0 0.0 0.00 0.00 0.00 100 1006.5
20260506043705 8 0.0 0.0 0.00 0.00 0.00 100 1006.5
20260506043206 8 0.0 0.0 0.00 0.00 0.00 100 1006.5
20260506042704 8 0.0 0.0 0.00 0.00 0.00 100 1006.5
20260506042206 9 0.0 0.0 0.00 0.00 0.00 100 1006.7
20260506041705 9 0.0 0.0 0.00 0.00 0.00 100 1006.7
20260506041204 9 0.0 0.0 0.00 0.00 0.00 100 1006.7
20260506040205 9 0.0 0.0 0.00 0.00 0.00 100 1006.8
20260506035705 9 0.0 0.0 0.00 0.00 0.00 100 1006.8
20260506035205 9 0.0 0.0 0.00 0.00 0.00 100 1006.8
20260506034206 9 0.0 0.0 0.00 0.00 0.00 100 1006.7
20260506033204 9 0.0 0.0 0.00 0.00 0.00 100 1006.7
20260506032706 9 0.0 0.0 0.00 0.00 0.00 100 1006.7
20260506032204 9 0.0 0.0 0.00 0.00 0.00 100 1006.7
20260506031705 9 0.0 0.0 0.00 0.00 0.00 100 1006.7
20260506031205 9 0.0 0.0 0.00 0.00 0.00 100 1006.7
20260506030206 9 0.0 0.0 0.00 0.00 0.00 100 1006.7
20260506025705 9 0.0 0.0 0.00 0.00 0.00 100 1006.7
20260506025206 9 0.0 0.0 0.00 0.00 0.00 100 1006.9
20260506024704 9 0.0 0.0 0.00 0.00 0.00 100 1006.9
20260506024205 9 0.0 0.0 0.00 0.00 0.00 100 1007.1
20260506023706 9 0.0 0.0 0.00 0.00 0.00 100 1007.1
20260506023205 9 0.0 0.0 0.00 0.00 0.00 100 1007.2
20260506022204 9 0.0 0.0 0.00 0.00 0.00 100 1007.2
20260506021205 9 0.0 0.0 0.00 0.00 0.00 100 1007.3
20260506020705 9 0.0 0.0 0.00 0.00 0.00 100 1007.3
20260506020206 9 0.0 0.0 0.00 0.00 0.00 100 1007.3
20260506015705 9 0.0 0.0 0.00 0.00 0.00 100 1007.3
20260506015204 10 0.0 0.0 0.00 0.00 0.00 100 1007.2
20260506014705 10 0.0 0.0 0.00 0.00 0.00 100 1007.2
20260506014204 10 0.0 0.0 0.00 0.00 0.00 100 1007.2
20260506013705 10 0.0 0.0 0.00 0.00 0.00 100 1007.2
20260506012705 10 0.0 0.0 0.00 0.00 0.00 100 1007.1
20260506012207 10 0.0 0.0 0.00 0.00 0.00 100 1007.1
20260506011705 10 0.0 0.0 0.00 0.00 0.00 100 1007.1
20260506011205 10 0.0 0.0 0.00 0.00 0.00 100 1007.1
20260506010705 10 0.0 0.0 0.00 0.00 0.00 100 1007.1
20260506010205 10 0.0 0.0 0.00 0.00 0.00 100 1007.1
20260506005704 10 0.0 0.0 0.00 0.00 0.00 100 1007.1
20260506004705 10 0.0 0.0 0.00 0.00 0.00 100 1007.3
20260506004205 10 0.0 0.0 0.00 0.00 0.00 100 1007.3
20260506003706 10 0.0 0.0 0.00 0.00 0.00 100 1007.3
20260506003205 11 0.0 0.0 0.00 0.00 0.00 100 1007.4
20260506002704 11 0.0 0.0 0.00 0.00 0.00 100 1007.4
20260506001705 11 0.0 0.0 0.00 0.00 0.00 100 1007.7
20260506001207 11 0.0 0.0 0.00 0.00 0.00 100 1007.7
20260506000706 11 0.0 0.0 0.00 0.00 0.00 100 1007.7
20260505235705 11 0.0 0.0 0.00 0.00 0.00 100 1007.7
20260505235205 11 0.0 0.0 0.00 0.00 0.00 100 1007.8
20260505234705 11 0.0 0.0 0.00 0.00 0.00 100 1007.8
20260505233205 11 0.0 0.0 0.00 0.00 0.00 99 1007.7
20260505232704 11 0.0 0.0 0.00 0.00 0.00 99 1007.7
20260505232206 11 0.0 0.0 0.00 0.00 0.00 99 1007.7
20260505231705 11 0.0 0.0 0.00 0.00 0.00 99 1007.7
20260505231204 11 0.0 0.0 0.00 0.00 0.00 99 1007.8
20260505230705 11 0.0 0.0 0.00 0.00 0.00 99 1007.8
20260505230204 11 0.0 0.0 0.00 0.00 0.00 99 1007.8
20260505225705 11 0.0 0.0 0.00 0.00 0.00 99 1007.8
20260505225206 11 0.0 0.0 0.00 0.00 0.00 99 1007.7
20260505224705 11 0.0 0.0 0.00 0.00 0.00 99 1007.7
20260505224204 11 0.0 0.0 0.00 0.00 0.00 99 1007.6
20260505223707 11 0.0 0.0 0.00 0.00 0.00 99 1007.6
20260505223204 11 0.0 0.0 0.00 0.00 0.00 99 1007.5
20260505222706 11 0.0 0.0 0.00 0.00 0.00 99 1007.5
20260505222204 11 0.0 0.0 0.00 0.00 0.00 99 1007.5
20260505221705 11 0.0 0.0 0.00 0.00 0.00 99 1007.5
20260505221205 12 0.0 0.0 0.00 0.00 0.00 98 1007.7
20260505220706 12 0.0 0.0 0.00 0.00 0.00 98 1007.7
20260505215705 12 0.0 0.0 0.00 0.00 0.00 98 1007.7
20260505215207 12 0.0 0.0 0.00 0.00 0.00 98 1007.7
20260505214704 12 0.0 0.0 0.00 0.00 0.00 98 1007.7
20260505214206 12 0.0 0.0 0.00 0.00 0.00 97 1007.7
20260505213705 12 0.0 0.0 0.00 0.00 0.00 97 1007.7
20260505213204 12 0.0 0.0 0.00 0.00 0.00 98 1007.7
20260505212705 12 0.0 0.0 0.00 0.00 0.00 98 1007.7
20260505211704 12 0.0 0.0 0.00 0.00 0.00 97 1007.8
20260505211206 12 0.0 0.0 0.00 0.00 0.00 97 1007.7
20260505210205 12 0.0 0.0 0.00 0.00 0.00 96 1007.6
20260505205706 12 0.0 0.0 0.00 0.00 0.00 96 1007.6
20260505204705 13 0.0 0.0 0.00 0.00 0.00 94 1007.4
20260505203207 12 0.0 0.0 0.00 0.00 0.00 94 1007.4
20260505202704 12 0.0 0.0 0.00 0.00 0.00 94 1007.4
20260505202206 12 0.0 0.0 0.00 0.00 0.00 96 1007.4
20260505200205 13 0.0 0.0 0.00 0.00 0.00 97 1007.2
20260505195704 13 0.0 0.0 0.00 0.00 0.00 97 1007.2
20260505195204 13 0.0 0.0 0.00 0.00 0.00 96 1007.0
20260505194206 13 0.0 0.0 0.00 0.00 0.00 95 1006.9
20260505193705 13 0.0 0.0 0.00 0.00 0.00 95 1006.9
20260505193206 13 0.0 0.0 0.00 0.00 0.00 95 1006.8
20260505192704 13 0.0 0.0 0.00 0.00 0.00 95 1006.8
20260505191706 13 0.0 0.0 0.00 0.00 0.00 94 1006.6
20260505191204 13 0.0 0.0 0.00 0.00 0.00 92 1006.6
20260505190704 13 0.0 0.0 0.00 0.00 0.00 92 1006.6
20260505185705 13 0.0 0.0 0.00 0.00 0.00 96 1006.7
20260505185206 13 0.0 0.0 0.00 0.00 0.00 98 1006.6
20260505183705 13 0.0 0.0 0.00 0.00 0.00 98 1006.7
20260505183204 13 0.0 0.0 0.00 0.00 0.00 98 1006.4
20260505182705 13 0.0 0.0 0.00 0.00 0.00 98 1006.4
20260505182206 13 0.0 0.0 0.00 0.00 0.00 98 1006.4
20260505181704 13 0.0 0.0 0.00 0.00 0.00 98 1006.4
20260505181205 13 0.0 0.0 0.00 0.00 0.00 96 1006.4
20260505180706 13 0.0 0.0 0.00 0.00 0.00 96 1006.4
20260505175705 13 0.0 0.0 0.00 0.00 0.00 96 1006.4
20260505175205 14 0.0 0.0 0.00 0.00 0.00 95 1006.5
20260505174705 14 0.0 0.0 0.00 0.00 0.00 95 1006.5
20260505174205 14 0.0 0.0 0.00 0.00 0.00 93 1006.8
20260505173706 14 0.0 0.0 0.00 0.00 0.00 93 1006.8
20260505173205 15 0.0 0.0 0.00 0.00 0.00 92 1006.7
20260505172705 15 0.0 0.0 0.00 0.00 0.00 92 1006.7
20260505172204 15 0.0 0.0 0.00 0.00 0.00 92 1006.6
20260505171704 15 0.0 0.0 0.00 0.00 0.00 92 1006.6
20260505171206 15 0.0 0.0 0.00 0.00 0.00 93 1006.5
20260505170705 15 0.0 0.0 0.00 0.00 0.00 93 1006.5
20260505165707 15 0.0 0.0 0.00 0.00 0.00 91 1006.4
20260505165205 15 0.0 0.0 0.00 0.00 0.00 91 1006.4
20260505164704 15 0.0 0.0 0.00 0.00 0.00 91 1006.4
20260505164204 15 0.0 0.0 0.00 0.00 0.00 91 1006.4
20260505163204 15 0.0 0.0 0.00 0.00 0.00 93 1006.4
20260505162704 15 0.0 0.0 0.00 0.00 0.00 93 1006.4
20260505161705 15 0.0 0.0 0.00 0.00 0.00 93 1006.4
20260505161207 15 0.0 0.0 0.00 0.00 0.00 95 1006.3
20260505160704 15 0.0 0.0 0.00 0.00 0.00 95 1006.3
20260505160205 14 0.0 0.0 0.00 0.00 0.00 96 1006.3
20260505153207 14 0.0 0.0 0.00 0.00 0.00 98 1006.9
20260505152705 14 0.0 0.0 0.00 0.00 0.00 98 1006.9
20260505152205 14 0.0 0.0 0.00 0.00 0.00 98 1006.9
20260505151707 14 0.0 0.0 0.00 0.00 0.00 98 1006.9
20260505151204 14 0.0 0.0 0.00 0.00 0.00 97 1007.0
20260505150705 14 0.0 0.0 0.00 0.00 0.00 97 1007.0
20260505150206 14 0.0 0.0 0.00 0.00 0.00 97 1007.0
20260505140204 14 0.0 0.0 0.00 0.00 0.00 95 1007.7
20260505130207 16 0.0 0.0 0.00 0.00 0.00 88 1007.1
20260505124707 17 0.0 0.0 0.00 0.00 0.00 79 1006.8
20260505124205 18 0.0 0.0 0.00 0.00 0.00 68 1006.5
20260505123707 18 0.0 0.0 0.00 0.00 0.00 68 1006.5
20260505122205 19 0.0 0.0 0.00 0.00 0.00 62 1006.4
20260505121704 19 0.0 0.0 0.00 0.00 0.00 62 1006.4
20260505121205 19 0.0 0.0 0.00 0.00 0.00 62 1006.4
20260505120704 19 0.0 0.0 0.00 0.00 0.00 62 1006.4
20260505115705 19 0.0 0.0 0.00 0.00 0.00 61 1006.3
20260505115205 20 0.0 0.0 0.00 0.00 0.00 60 1006.2
20260505114705 20 0.0 0.0 0.00 0.00 0.00 60 1006.2
20260505114205 20 0.0 0.0 0.00 0.00 0.00 57 1006.2
20260505113705 20 0.0 0.0 0.00 0.00 0.00 57 1006.2
20260505113206 20 0.0 0.0 0.00 0.00 0.00 58 1006.3
20260505112705 20 0.0 0.0 0.00 0.00 0.00 58 1006.3
20260505112204 20 0.0 0.0 0.00 0.00 0.00 58 1006.3
20260505111705 20 0.0 0.0 0.00 0.00 0.00 58 1006.3
20260505111204 20 0.0 0.0 0.00 0.00 0.00 59 1006.4
20260505110705 20 0.0 0.0 0.00 0.00 0.00 59 1006.4
20260505110206 20 0.0 0.0 0.00 0.00 0.00 60 1006.5
20260505102205 19 0.0 0.0 0.00 0.00 0.00 66 1007.0
20260505101705 19 0.0 0.0 0.00 0.00 0.00 66 1007.0
20260505101204 19 0.0 0.0 0.00 0.00 0.00 67 1007.1
20260505100705 19 0.0 0.0 0.00 0.00 0.00 67 1007.1
20260505100204 19 0.0 0.0 0.00 0.00 0.00 67 1007.2
20260505095704 19 0.0 0.0 0.00 0.00 0.00 67 1007.2
20260505095205 18 0.0 0.0 0.00 0.00 0.00 68 1007.2
20260505094705 18 0.0 0.0 0.00 0.00 0.00 68 1007.2
20260505094205 18 0.0 0.0 0.00 0.00 0.00 68 1007.3
20260505093704 18 0.0 0.0 0.00 0.00 0.00 68 1007.3
20260505092705 18 0.0 0.0 0.00 0.00 0.00 68 1007.5